Location: Stanford
(52.2833°N, 2.4333°W)
Time: 01:15:32
(UTC+00:00)

CSL-04 Rocket - Pass Details

Date: 22 January 2021
Orbit: 806 x 860 km, 98.9° (Epoch: 28 February)

Event Time Altitude Azimuth Distance (km) Brightness Sun altitude
Rises 17:59:47 0° 132° (SE) 3,369 6.5 -12.1°
Reaches altitude 10° 18:02:17 10° 124° (ESE) 2,448 5.7 -12.5°
Maximum altitude 18:07:08 35° 60° (ENE) 1,350 4.3 -13.2°
Drops below altitude 10° 18:12:04 10° 357° (N) 2,491 6.0 -13.9°
Sets 18:14:38 0° 349° (N) 3,438 6.9 -14.3°
